Regional Weather Roundup
Issued by NWS

Home | Current Version | Previous Version | Graphics & Text | Print | Product List | Glossary On
Versions: 1 2 3 4 5 6 7 8 9 10 11 12 13 14 15 16 17 18 19 20 21 22 23 24 25 26 27 28 29 30 31 32 33 34 35 36 37 38 39 40 41 42 43 44 45 46 47 48 49 50
000
ASUS43 KLMK 290502
RWRKY
KENTUCKY REGIONAL WEATHER ROUNDUP
NATIONAL WEATHER SERVICE LOUISVILLE KY
100 AM EDT THU SEP 29 2016

NOTE "FAIR" INDICATES FEW OR NO CLOUDS BELOW 12,000 FEET
WITH NO SIGNIFICANT WEATHER AND/OR OBSTRUCTIONS TO VISIBILITY.

KYZ001>023-026-027-061>063-070>075-290600-
WESTERN AND SOUTH CENTRAL KENTUCKY

CITY           SKY/WX    TMP DP  RH WIND       PRES   REMARKS
PADUCAH        CLEAR     55  46  71 NW3       30.08S
HENDERSON      CLEAR     52  45  76 W5        30.04S
OWENSBORO      NOT AVBL
HOPKINSVILLE   PTCLDY    52  44  75 W5        30.05F
BOWLING GREEN  CLEAR     54  47  77 W5        30.03F
GLASGOW        CLEAR     52  52 100 CALM      30.02S
$$

KYZ024-025-028>034-038-045-046-053-290600-
NORTH CENTRAL KENTUCKY

CITY           SKY/WX    TMP DP  RH WIND       PRES   REMARKS
LOUISVILLE/SDF MOCLDY    56  49  77 W6        30.00S
LOUISVILLE/LOU MOCLDY    55  50  83 CALM      30.00S
FORT KNOX      PTCLDY    48  47  93 W5        29.99F
$$

KYZ035>037-039>044-047>052-055>060-089>105-290600-
NORTHEAST KENTUCKY

CITY           SKY/WX    TMP DP  RH WIND       PRES   REMARKS
LEXINGTON      CLEAR     53  50  89 NW8       29.97F
COVINGTON      CLOUDY    51  51 100 W3        29.97R FOG
FRANKFORT      CLEAR     53  50  89 CALM      29.98S
$$

KYZ054-064>069-076>088-106>120-290600-
SOUTHEAST KENTUCKY

CITY           SKY/WX    TMP DP  RH WIND       PRES   REMARKS
JACKSON        LGT RAIN  57  55  93 CALM      29.98F VSB 1
LONDON         CLOUDY    56  53  90 W5        29.99R
SOMERSET       CLOUDY    54  54 100 CALM      30.02S
MIDDLESBORO    CLOUDY    61  56  83 N3        29.99S
MONTICELLO     MOCLDY    54  53  97 W13       30.02F
$$




USA.gov is the U.S. government's official web portal to all federal, state and local government web resources and services.